Cross City, FL

7:42 PM EDT on October 21, 2019 (GMT -0400)
Cross City

Weather History for KCTY - July, 2019

Change the Weather History Date:

Thursday, July 11, 2019

  Actual Average Record
Temperature  
Mean Temperature 82 °F 81 °F  
Max Temperature 90 °F 91 °F 98 °F (2004)
Min Temperature 74 °F 72 °F 70 °F (2002)
Degree Days  
Heating Degree Days 0    
Month to date heating degree days 0  
Since 1 June heating degree days 0  
Since 1 July heating degree days 0  
Cooling Degree Days 17    
Month to date cooling degree days 201  
Year to date cooling degree days 1377  
Since 1 June cooling degree days 693  
Growing Degree Days 32 (Base 50)    
Moisture  
Dew Point 75 °F    
Average Humidity 83    
Maximum Humidity 97    
Minimum Humidity 58    
Precipitation  
Precipitation 0.24 in 0.19 in 1.36 in (2014)
Month to date precipitation 1.89 1.85  
Year to date precipitation 30.54 24.11  
Sea Level Pressure  
Sea Level Pressure 29.96 in    
Wind  
Wind Speed 7 mph (SSE)    
Max Wind Speed 15 mph    
Max Gust Speed 28 mph    
Visibility 10 miles    
Events Rain , Thunderstorm    
T = Trace of Precipitation, MM = Missing Value Source: NWS Daily Summary

Daily Weather History Graph

Daily Weather History Graph

Search for Another Location

Airport or City:

Astronomy

Jul. 11, 2019 Rise Set
Actual Time 6:40 AM EDT 8:35 PM EDT
Civil Twilight 6:13 AM EDT 9:02 PM EDT
Nautical Twilight 5:40 AM EDT 9:34 PM EDT
Astronomical Twilight 5:06 AM EDT 10:09 PM EDT
Moon 3:58 PM EDT (7/11) 2:35 AM EDT (7/11)
Length of Visible Light 14h 49m
Length of Day
13h 55m
Waxing Gibbous, 74% of the Moon is Illuminated
Jul 11
Waxing Gibbous
Jul 16
Full
Jul 24
Last Quarter
Jul 31
New
Aug 7
First Quarter

Hourly Weather History & Observations

Time (EDT) Temp. Heat Index Dew Point Humidity Pressure Visibility Wind Dir Wind Speed Gust Speed Precip Events Conditions
12:15 AM 77.7 °F - 75.7 °F 94% 29.99 in 10.0 mi SSE 6.9 mph - N/A   Clear
12:35 AM 77.5 °F - 75.6 °F 94% 29.99 in 10.0 mi East 3.5 mph - N/A   Clear
12:55 AM 77.0 °F - 75.2 °F 94% 29.99 in 10.0 mi East 5.8 mph - N/A   Clear
1:15 AM 76.6 °F - 75.0 °F 95% 29.98 in 10.0 mi East 3.5 mph - N/A   Scattered Clouds
1:35 AM 76.3 °F - 75.0 °F 96% 29.97 in 10.0 mi East 3.5 mph - N/A   Clear
1:55 AM 75.9 °F - 74.8 °F 96% 29.97 in 10.0 mi ENE 3.5 mph - N/A   Scattered Clouds
2:15 AM 75.7 °F - 74.7 °F 96% 29.97 in 10.0 mi Calm Calm - N/A   Scattered Clouds
2:35 AM 75.7 °F - 74.8 °F 97% 29.96 in 10.0 mi East 3.5 mph - N/A   Mostly Cloudy
2:55 AM 77.0 °F - 75.2 °F 94% 29.96 in 10.0 mi East 4.6 mph - N/A   Mostly Cloudy
3:15 AM 76.1 °F - 75.2 °F 97% 29.97 in 10.0 mi East 3.5 mph - N/A   Mostly Cloudy
3:35 AM 76.3 °F - 75.2 °F 96% 29.97 in 10.0 mi East 3.5 mph - N/A   Mostly Cloudy
3:55 AM 76.5 °F - 75.2 °F 96% 29.95 in 10.0 mi East 4.6 mph - N/A   Mostly Cloudy
4:15 AM 76.1 °F - 74.8 °F 96% 29.95 in 10.0 mi SSE 4.6 mph - N/A   Scattered Clouds
4:35 AM 76.3 °F - 75.0 °F 96% 29.94 in 4.0 mi SE 4.6 mph - N/A Rain Light Rain
4:55 AM 76.3 °F - 75.2 °F 96% 29.96 in 10.0 mi SE 4.6 mph - N/A Rain Light Rain
5:15 AM 76.5 °F - 75.2 °F 96% 29.96 in 5.0 mi SSE 10.4 mph - 0.01 in Rain Light Rain
5:35 AM 75.0 °F - 72.3 °F 91% 29.95 in 10.0 mi SE 3.5 mph - 0.01 in Rain Light Rain
5:55 AM 74.1 °F - 72.3 °F 94% 29.95 in 10.0 mi SE 6.9 mph - 0.02 in   Overcast
6:15 AM 75.2 °F - 73.4 °F 94% 29.96 in 10.0 mi SSE 6.9 mph - N/A   Mostly Cloudy
6:35 AM 75.0 °F - 73.4 °F 95% 29.96 in 10.0 mi Calm Calm - N/A   Mostly Cloudy
6:55 AM 74.8 °F - 73.4 °F 95% 29.97 in 10.0 mi SSE 3.5 mph - N/A   Overcast
7:15 AM 75.0 °F - 73.6 °F 95% 29.97 in 10.0 mi ESE 4.6 mph - N/A   Overcast
7:35 AM 75.7 °F - 73.9 °F 94% 29.98 in 10.0 mi ESE 4.6 mph - N/A   Scattered Clouds
7:55 AM 76.6 °F - 74.5 °F 93% 29.98 in 10.0 mi East 4.6 mph - N/A Thunderstorm Thunderstorm
8:15 AM 77.7 °F - 75.2 °F 92% 29.99 in 10.0 mi ESE 6.9 mph - N/A   Clear
8:35 AM 78.8 °F - 75.9 °F 91% 29.99 in 10.0 mi SE 6.9 mph - N/A   Clear
8:55 AM 79.7 °F - 76.3 °F 89% 29.99 in 10.0 mi SE 8.1 mph - N/A   Clear
9:15 AM 81.0 °F 87.7 °F 76.6 °F 87% 29.99 in 10.0 mi SSE 8.1 mph - N/A   Scattered Clouds
9:35 AM 82.0 °F 89.9 °F 76.8 °F 84% 29.99 in 10.0 mi SE 6.9 mph - N/A Thunderstorm Clear
9:55 AM 83.3 °F 92.8 °F 77.2 °F 82% 29.99 in 10.0 mi SSE 8.1 mph - N/A Thunderstorm Clear
10:15 AM 84.4 °F 94.2 °F 76.8 °F 78% 29.99 in 10.0 mi SE 6.9 mph - N/A   Scattered Clouds
10:35 AM 84.6 °F 94.7 °F 77.2 °F 78% 29.99 in 10.0 mi SSE 10.4 mph - N/A Thunderstorm Mostly Cloudy
10:55 AM 85.3 °F 95.4 °F 76.5 °F 75% 29.99 in 10.0 mi SSE 10.4 mph - N/A   Mostly Cloudy
11:15 AM 86.9 °F 98.3 °F 77.0 °F 72% 29.99 in 10.0 mi SSE 10.4 mph - N/A   Mostly Cloudy
11:35 AM 86.9 °F 97.8 °F 76.3 °F 71% 29.99 in 10.0 mi South 13.8 mph - N/A   Scattered Clouds
11:55 AM 87.6 °F 98.7 °F 76.3 °F 69% 29.98 in 10.0 mi SSE 9.2 mph - N/A   Scattered Clouds
12:15 PM 88.2 °F 99.0 °F 75.9 °F 67% 29.98 in 10.0 mi SSE 15.0 mph 19.6 mph N/A   Mostly Cloudy
12:35 PM 88.7 °F 101.0 °F 77.0 °F 68% 29.98 in 10.0 mi South 15.0 mph - N/A   Mostly Cloudy
12:55 PM 87.8 °F 97.6 °F 75.2 °F 66% 29.97 in 10.0 mi South 10.4 mph 17.3 mph N/A   Scattered Clouds
1:15 PM 86.7 °F 96.4 °F 75.4 °F 69% 29.97 in 10.0 mi SSE 10.4 mph 17.3 mph N/A   Mostly Cloudy
1:35 PM 88.5 °F 99.9 °F 76.1 °F 67% 29.96 in 10.0 mi SSW 11.5 mph - N/A   Mostly Cloudy
1:55 PM 90.0 °F 101.3 °F 75.7 °F 63% 29.96 in 10.0 mi SSW 10.4 mph - N/A   Mostly Cloudy
2:15 PM 86.2 °F 96.0 °F 75.7 °F 71% 29.96 in 5.0 mi SW 15.0 mph 25.3 mph 0.10 in Rain Heavy Rain
2:35 PM 85.1 °F 97.6 °F 78.6 °F 81% 29.95 in - SSW 6.9 mph - 0.11 in   Mostly Cloudy
2:55 PM 87.4 °F 97.2 °F 75.4 °F 67% 29.94 in 10.0 mi South 11.5 mph - 0.11 in   Clear
3:15 PM 88.5 °F 97.8 °F 74.5 °F 63% 29.95 in 10.0 mi SW 9.2 mph 17.3 mph N/A   Scattered Clouds
3:35 PM 89.2 °F 99.0 °F 74.7 °F 62% 29.95 in 10.0 mi SSW 12.7 mph - N/A   Scattered Clouds
3:55 PM 89.2 °F 97.4 °F 73.2 °F 59% 29.94 in 10.0 mi SW 15.0 mph - N/A   Scattered Clouds
4:15 PM 89.4 °F 97.3 °F 72.9 °F 58% 29.93 in 10.0 mi SSW 16.1 mph 19.6 mph N/A   Scattered Clouds
4:35 PM 87.6 °F 94.3 °F 72.1 °F 60% 29.93 in 10.0 mi SSW 10.4 mph - N/A Thunderstorm Clear
4:55 PM 88.0 °F 96.5 °F 73.8 °F 63% 29.92 in 10.0 mi SSW 11.5 mph - N/A   Clear
5:15 PM 88.5 °F 98.8 °F 75.6 °F 65% 29.92 in 10.0 mi SSW 8.1 mph - N/A   Clear
5:35 PM 87.4 °F 97.7 °F 75.7 °F 68% 29.91 in 10.0 mi SSW 8.1 mph - N/A   Scattered Clouds
5:55 PM 87.1 °F 97.3 °F 75.9 °F 69% 29.91 in 10.0 mi SSW 9.2 mph - N/A   Scattered Clouds
6:15 PM 86.4 °F 96.0 °F 75.7 °F 70% 29.92 in 10.0 mi South 10.4 mph - N/A   Scattered Clouds
6:35 PM 86.0 °F 96.4 °F 76.5 °F 73% 29.92 in 10.0 mi SSW 8.1 mph - N/A   Scattered Clouds
6:55 PM 79.7 °F - 76.8 °F 91% 29.92 in 3.0 mi SSW 5.8 mph 27.6 mph 0.10 in Rain , Thunderstorm Light Thunderstorms and Rain
7:15 PM 81.5 °F 89.7 °F 78.1 °F 89% 29.92 in 10.0 mi South 6.9 mph - N/A   Mostly Cloudy
7:35 PM 82.4 °F 92.1 °F 78.6 °F 88% 29.92 in 10.0 mi South 8.1 mph - N/A   Clear
7:55 PM 82.0 °F 89.9 °F 76.8 °F 84% 29.92 in 10.0 mi South 5.8 mph - N/A   Clear
8:15 PM 81.7 °F 88.7 °F 75.9 °F 83% 29.93 in 10.0 mi South 8.1 mph - N/A Thunderstorm Clear
8:35 PM 80.4 °F 86.0 °F 75.6 °F 85% 29.93 in 10.0 mi SSE 5.8 mph - N/A   Clear
8:55 PM 79.9 °F - 75.4 °F 86% 29.94 in 10.0 mi South 4.6 mph - N/A   Clear
9:15 PM 79.7 °F - 75.7 °F 88% 29.94 in 10.0 mi Calm Calm - N/A   Clear
9:35 PM 79.7 °F - 75.7 °F 88% 29.95 in 10.0 mi SSW 4.6 mph - N/A   Clear
9:55 PM 78.8 °F - 76.1 °F 91% 29.96 in 10.0 mi SE 3.5 mph - N/A   Scattered Clouds
10:15 PM 78.1 °F - 75.7 °F 92% 29.96 in 10.0 mi ESE 3.5 mph - N/A   Scattered Clouds
10:35 PM 78.3 °F - 75.6 °F 91% 29.97 in 10.0 mi SSE 4.6 mph - N/A   Clear
10:55 PM 78.6 °F - 75.2 °F 89% 29.97 in 10.0 mi SE 5.8 mph - N/A   Scattered Clouds
11:15 PM 78.1 °F - 75.4 °F 91% 29.96 in 10.0 mi SE 5.8 mph - N/A   Clear
11:35 PM 78.1 °F - 75.2 °F 91% 29.97 in 10.0 mi SE 6.9 mph - N/A Thunderstorm Clear
11:55 PM 77.5 °F - 74.5 °F 90% 29.97 in 10.0 mi SE 5.8 mph - N/A   Scattered Clouds